Weather History for Milton, FL

Change the Weather History Date:

Friday, October 26, 2012

  Actual Average (KNSE) Record (KNSE)
Temperature  
Mean Temperature 73 °F -  
Max Temperature 84 °F 75 °F 91 °F (2010)
Min Temperature 62 °F 56 °F 0 °F (2008)
Cooling Degree Days 8    
Growing Degree Days 23 (Base 50)    
Moisture  
Dew Point 61 °F    
Average Humidity 72    
Maximum Humidity 90    
Minimum Humidity 45    
Precipitation  
Precipitation 0.00 in - - ()
Sea Level Pressure  
Sea Level Pressure 29.88 in    
Wind  
Wind Speed 5 mph (NNE)    
Max Wind Speed 10 mph    
Max Gust Speed -    
Visibility 10 miles    
Events      
Averages and records for this station are not official NWS values.
T = Trace of Precipitation, MM = Missing Value Source: NWS Daily Summary

Daily Weather History Graph

Daily Weather History Graph

Search for Another Location

Airport:

Trip Planner

Search our weather history database for the weather conditions in past years. The results will help you decide how hot, cold, wet, or windy it might be!

Date:

Astronomy

Oct. 26, 2012 Rise Set
Actual Time 6:58 AM CDT 6:04 PM CDT
Civil Twilight 6:34 AM CDT 6:29 PM CDT
Nautical Twilight 6:05 AM CDT 6:57 PM CDT
Astronomical Twilight 5:37 AM CDT 7:25 PM CDT
Moon 4:12 PM CDT (10/26) 4:04 AM CDT (10/26)
Length of Visible Light 11h 55m
Length of Day
11h 06m
Waxing Gibbous, 91% of the Moon is Illuminated
Oct 26
Waxing Gibbous
Oct 29
Full
Nov 6
Last Quarter
Nov 13
New
Nov 20
First Quarter

Hourly Weather History & Observations

Time (CDT) Temp. Heat Index Dew Point Humidity Pressure Visibility Wind Dir Wind Speed Gust Speed Precip Events Conditions
12:56 AM 62.1 °F - 59.0 °F 90% 29.90 in 10.0 mi NNW 3.5 mph - N/A   Clear
1:56 AM 62.1 °F - 59.0 °F 90% 29.90 in 10.0 mi Calm Calm - N/A   Clear
2:56 AM 66.0 °F - 60.1 °F 81% 29.89 in 10.0 mi NNE 6.9 mph - N/A   Clear
3:56 AM 63.0 °F - 59.0 °F 87% 29.88 in 10.0 mi NE 4.6 mph - N/A   Clear
4:56 AM 64.0 °F - 60.1 °F 87% 29.89 in 10.0 mi NE 5.8 mph - N/A   Clear
5:56 AM 62.1 °F - 59.0 °F 90% 29.90 in 10.0 mi North 3.5 mph - N/A   Clear
6:56 AM 63.0 °F - 60.1 °F 90% 29.90 in 10.0 mi NNE 4.6 mph - N/A   Clear
7:56 AM 66.0 °F - 61.0 °F 84% 29.92 in 10.0 mi NE 6.9 mph - N/A   Clear
8:56 AM 70.0 °F - 64.0 °F 81% 29.94 in 10.0 mi NE 6.9 mph - N/A   Clear
9:56 AM 75.0 °F - 64.9 °F 71% 29.94 in 10.0 mi ENE 3.5 mph - N/A   Clear
10:56 AM 80.1 °F 82.1 °F 66.0 °F 62% 29.94 in 10.0 mi ENE 6.9 mph - N/A   Clear
11:56 AM 82.9 °F 84.4 °F 64.0 °F 53% 29.93 in 10.0 mi NNE 9.2 mph - N/A   Clear
12:56 PM 82.0 °F 83.0 °F 62.1 °F 51% 29.89 in 10.0 mi NNE 10.4 mph - N/A   Mostly Cloudy
1:56 PM 84.0 °F 84.4 °F 61.0 °F 46% 29.86 in 10.0 mi Variable 6.9 mph - N/A   Scattered Clouds
2:56 PM 82.0 °F 82.4 °F 60.1 °F 47% 29.84 in 10.0 mi NNE 8.1 mph - N/A   Clear
3:56 PM 82.9 °F 83.2 °F 60.1 °F 46% 29.83 in 10.0 mi NNE 9.2 mph - N/A   Partly Cloudy
4:56 PM 82.0 °F 82.1 °F 59.0 °F 45% 29.83 in 10.0 mi NNE 9.2 mph - N/A   Clear
5:56 PM 77.0 °F - 61.0 °F 58% 29.85 in 10.0 mi North 4.6 mph - N/A   Clear
6:56 PM 73.0 °F - 60.1 °F 64% 29.85 in 10.0 mi NNW 4.6 mph - N/A   Clear
7:56 PM 68.0 °F - 61.0 °F 78% 29.85 in 10.0 mi NNW 4.6 mph - N/A   Clear
8:56 PM 66.0 °F - 61.0 °F 84% 29.86 in 10.0 mi NW 5.8 mph - N/A   Clear
9:56 PM 64.9 °F - 60.1 °F 84% 29.86 in 10.0 mi NW 5.8 mph - N/A   Clear
10:56 PM 68.0 °F - 61.0 °F 78% 29.85 in 10.0 mi North 8.1 mph - N/A   Clear
11:56 PM 69.1 °F - 61.0 °F 75% 29.85 in 10.0 mi North 10.4 mph - N/A   Clear